Time,TemperatureF,DewpointF,PressureIn,WindDirection,WindDirectionDegrees,WindSpeedMPH,WindSpeedGustMPH,Humidity,HourlyPrecipIn,Conditions,Clouds,dailyrainin,SoftwareType,DateUTC
2013-02-08 00:02:00,64.2,60.6,29.39,NE,45,0.0,0.0,88,0.00,,,0.00,meteohub,2013-02-08 10:02:00,
2013-02-08 00:07:00,64.4,60.8,29.39,NE,45,0.0,0.0,88,0.00,,,0.00,meteohub,2013-02-08 10:07:00,
2013-02-08 00:12:00,64.4,60.8,29.39,NE,45,0.0,0.0,88,0.00,,,0.00,meteohub,2013-02-08 10:12:00,
2013-02-08 00:17:00,64.2,60.3,29.39,NE,45,0.0,0.0,87,0.00,,,0.00,meteohub,2013-02-08 10:17:00,
2013-02-08 00:22:00,63.9,60.3,29.39,East,90,0.0,0.0,88,0.00,,,0.00,meteohub,2013-02-08 10:22:00,
2013-02-08 00:27:00,63.7,60.1,29.38,East,90,0.0,0.0,88,0.00,,,0.00,meteohub,2013-02-08 10:27:00,
2013-02-08 00:32:00,63.5,60.3,29.38,East,90,0.0,0.0,89,0.00,,,0.00,meteohub,2013-02-08 10:32:00,
2013-02-08 00:37:00,63.3,60.1,29.38,NE,45,0.0,0.0,89,0.00,,,0.00,meteohub,2013-02-08 10:37:00,
2013-02-08 00:42:00,63.3,60.1,29.38,NE,45,0.0,0.0,89,0.00,,,0.00,meteohub,2013-02-08 10:42:00,
2013-02-08 00:47:00,63.0,59.7,29.38,NE,45,0.0,0.0,89,0.00,,,0.00,meteohub,2013-02-08 10:47:00,
2013-02-08 00:52:00,62.8,59.7,29.38,East,90,0.0,0.0,90,0.00,,,0.00,meteohub,2013-02-08 10:52:00,
2013-02-08 00:57:00,62.8,59.7,29.38,East,90,0.0,0.0,90,0.00,,,0.00,meteohub,2013-02-08 10:57:00,
2013-02-08 01:02:00,63.0,59.9,29.38,NE,45,0.0,0.0,90,0.00,,,0.00,meteohub,2013-02-08 11:02:00,
2013-02-08 01:07:00,63.1,59.9,29.38,NE,45,0.0,0.0,89,0.00,,,0.00,meteohub,2013-02-08 11:07:00,
2013-02-08 01:12:00,63.3,60.1,29.38,NW,315,0.0,0.0,89,0.00,,,0.00,meteohub,2013-02-08 11:12:00,
2013-02-08 01:17:00,63.3,59.7,29.38,NE,45,0.0,0.0,88,0.00,,,0.00,meteohub,2013-02-08 11:17:00,
2013-02-08 01:22:00,63.3,59.4,29.37,East,90,0.0,0.0,87,0.00,,,0.00,meteohub,2013-02-08 11:22:00,
2013-02-08 01:27:00,63.3,59.4,29.38,NE,45,0.0,0.0,87,0.00,,,0.00,meteohub,2013-02-08 11:27:00,
2013-02-08 01:32:00,63.3,59.0,29.38,East,90,0.0,0.0,86,0.00,,,0.00,meteohub,2013-02-08 11:32:00,
2013-02-08 01:37:00,63.3,59.0,29.38,East,90,0.0,0.0,86,0.00,,,0.00,meteohub,2013-02-08 11:37:00,
2013-02-08 01:42:00,63.5,58.8,29.37,NE,45,0.0,0.0,85,0.00,,,0.00,meteohub,2013-02-08 11:42:00,
2013-02-08 01:47:00,63.5,58.8,29.37,NE,45,0.0,0.0,85,0.00,,,0.00,meteohub,2013-02-08 11:47:00,
2013-02-08 01:52:00,63.7,58.8,29.37,East,90,0.0,0.0,84,0.00,,,0.00,meteohub,2013-02-08 11:52:00,
2013-02-08 01:57:00,63.7,58.8,29.36,East,90,0.0,0.0,84,0.00,,,0.00,meteohub,2013-02-08 11:57:00,
2013-02-08 02:02:00,63.7,58.8,29.37,NE,45,0.0,0.0,84,0.00,,,0.00,meteohub,2013-02-08 12:02:00,
2013-02-08 02:07:00,63.5,58.8,29.37,NE,45,0.0,0.0,85,0.00,,,0.00,meteohub,2013-02-08 12:07:00,
2013-02-08 02:12:00,63.3,58.8,29.36,NE,45,0.0,0.0,85,0.00,,,0.00,meteohub,2013-02-08 12:12:00,
2013-02-08 02:17:00,63.0,58.6,29.36,NE,45,0.0,0.0,86,0.00,,,0.00,meteohub,2013-02-08 12:17:00,
2013-02-08 02:22:00,62.4,58.8,29.36,NE,45,0.0,0.0,88,0.00,,,0.00,meteohub,2013-02-08 12:22:00,
2013-02-08 02:27:00,62.2,58.6,29.36,East,90,0.0,0.0,88,0.00,,,0.00,meteohub,2013-02-08 12:27:00,
2013-02-08 02:32:00,62.2,58.6,29.36,East,90,0.0,0.0,88,0.00,,,0.00,meteohub,2013-02-08 12:32:00,
2013-02-08 02:37:00,61.9,58.3,29.36,East,90,0.0,0.0,88,0.00,,,0.00,meteohub,2013-02-08 12:37:00,
2013-02-08 02:42:00,61.7,58.5,29.36,NE,45,0.0,0.0,89,0.00,,,0.00,meteohub,2013-02-08 12:42:00,
2013-02-08 02:47:00,61.0,58.1,29.36,NE,45,0.0,0.0,90,0.00,,,0.00,meteohub,2013-02-08 12:47:00,
2013-02-08 02:52:00,60.6,57.9,29.36,NE,45,0.0,0.0,91,0.00,,,0.00,meteohub,2013-02-08 12:52:00,
2013-02-08 02:57:00,60.3,57.9,29.36,NE,45,0.0,0.0,92,0.00,,,0.00,meteohub,2013-02-08 12:57:00,
2013-02-08 03:02:00,60.4,58.5,29.36,East,90,0.0,0.0,93,0.00,,,0.00,meteohub,2013-02-08 13:02:00,
2013-02-08 03:07:00,60.6,58.3,29.36,NE,45,0.0,0.0,92,0.00,,,0.00,meteohub,2013-02-08 13:07:00,
2013-02-08 03:12:00,60.8,58.1,29.35,East,90,0.0,0.0,91,0.00,,,0.00,meteohub,2013-02-08 13:12:00,
2013-02-08 03:17:00,61.0,57.7,29.36,East,90,0.0,0.0,89,0.00,,,0.00,meteohub,2013-02-08 13:17:00,
2013-02-08 03:22:00,61.2,57.6,29.36,NE,45,0.0,0.0,88,0.00,,,0.00,meteohub,2013-02-08 13:22:00,
2013-02-08 03:27:00,61.3,57.7,29.36,NE,45,0.0,0.0,88,0.00,,,0.00,meteohub,2013-02-08 13:27:00,
2013-02-08 03:32:00,61.3,57.7,29.36,NE,45,0.0,0.0,88,0.00,,,0.00,meteohub,2013-02-08 13:32:00,
2013-02-08 03:37:00,61.3,57.4,29.35,NE,45,0.0,0.0,87,0.00,,,0.00,meteohub,2013-02-08 13:37:00,
2013-02-08 03:42:00,61.3,57.4,29.36,NE,45,0.0,0.0,87,0.00,,,0.00,meteohub,2013-02-08 13:42:00,
2013-02-08 03:47:00,61.5,57.6,29.36,NE,45,0.0,0.0,87,0.00,,,0.00,meteohub,2013-02-08 13:47:00,
2013-02-08 03:52:00,61.5,57.4,29.36,East,90,0.0,0.0,86,0.00,,,0.00,meteohub,2013-02-08 13:52:00,
2013-02-08 03:57:00,61.7,57.4,29.36,East,90,0.0,0.0,86,0.00,,,0.00,meteohub,2013-02-08 13:57:00,
2013-02-08 04:02:00,61.7,57.4,29.36,East,90,0.0,0.0,86,0.00,,,0.00,meteohub,2013-02-08 14:02:00,
2013-02-08 04:07:00,61.7,57.2,29.36,NE,45,0.0,0.0,85,0.00,,,0.00,meteohub,2013-02-08 14:07:00,
2013-02-08 04:12:00,61.7,56.8,29.36,NE,45,0.0,0.0,84,0.00,,,0.00,meteohub,2013-02-08 14:12:00,
2013-02-08 04:17:00,61.7,56.8,29.36,NE,45,0.0,0.0,84,0.00,,,0.00,meteohub,2013-02-08 14:17:00,
2013-02-08 04:22:00,61.7,56.8,29.36,East,90,0.0,0.0,84,0.00,,,0.00,meteohub,2013-02-08 14:22:00,
2013-02-08 04:27:00,61.7,56.5,29.36,NE,45,0.0,0.0,83,0.00,,,0.00,meteohub,2013-02-08 14:27:00,
2013-02-08 04:32:00,61.9,56.7,29.35,NE,45,0.0,0.0,83,0.00,,,0.00,meteohub,2013-02-08 14:32:00,
2013-02-08 04:37:00,62.1,56.5,29.35,NE,45,0.0,0.0,82,0.00,,,0.00,meteohub,2013-02-08 14:37:00,
2013-02-08 04:42:00,62.2,56.7,29.35,NE,45,0.0,0.0,82,0.00,,,0.00,meteohub,2013-02-08 14:42:00,
2013-02-08 04:47:00,62.4,56.8,29.35,NE,45,0.0,0.0,82,0.00,,,0.00,meteohub,2013-02-08 14:47:00,
2013-02-08 04:52:00,62.4,56.8,29.35,East,90,0.0,0.0,82,0.00,,,0.00,meteohub,2013-02-08 14:52:00,
2013-02-08 04:57:00,62.4,56.5,29.36,East,90,0.0,0.0,81,0.00,,,0.00,meteohub,2013-02-08 14:57:00,
2013-02-08 05:02:00,62.4,56.5,29.35,NE,45,0.0,0.0,81,0.00,,,0.00,meteohub,2013-02-08 15:02:00,
2013-02-08 05:07:00,62.4,56.5,29.36,NE,45,0.0,0.0,81,0.00,,,0.00,meteohub,2013-02-08 15:07:00,
2013-02-08 05:12:00,62.1,56.1,29.35,NE,45,0.0,0.0,81,0.00,,,0.00,meteohub,2013-02-08 15:12:00,
2013-02-08 05:17:00,61.9,56.3,29.36,NE,45,0.0,0.0,82,0.00,,,0.00,meteohub,2013-02-08 15:17:00,
2013-02-08 05:22:00,61.7,56.1,29.36,SE,135,0.0,0.0,82,0.00,,,0.00,meteohub,2013-02-08 15:22:00,
2013-02-08 05:27:00,61.7,55.8,29.35,West,270,0.0,0.0,81,0.00,,,0.00,meteohub,2013-02-08 15:27:00,
2013-02-08 05:32:00,61.7,55.8,29.36,NE,45,0.0,0.0,81,0.00,,,0.00,meteohub,2013-02-08 15:32:00,
2013-02-08 05:37:00,61.7,55.4,29.36,NE,45,0.0,0.0,80,0.00,,,0.00,meteohub,2013-02-08 15:37:00,
2013-02-08 05:42:00,61.7,55.4,29.36,East,90,0.0,0.0,80,0.00,,,0.00,meteohub,2013-02-08 15:42:00,
2013-02-08 05:47:00,61.7,55.0,29.36,NE,45,0.0,0.0,79,0.00,,,0.00,meteohub,2013-02-08 15:47:00,
2013-02-08 05:52:00,61.7,55.0,29.36,East,90,0.0,0.0,79,0.00,,,0.00,meteohub,2013-02-08 15:52:00,
2013-02-08 05:57:00,61.5,55.2,29.37,NE,45,0.0,0.0,80,0.00,,,0.00,meteohub,2013-02-08 15:57:00,
2013-02-08 06:02:00,61.3,55.0,29.37,NE,45,0.0,0.0,80,0.00,,,0.00,meteohub,2013-02-08 16:02:00,
2013-02-08 06:07:00,61.3,55.0,29.37,NE,45,0.0,0.0,80,0.00,,,0.00,meteohub,2013-02-08 16:07:00,
2013-02-08 06:12:00,61.3,55.0,29.37,NE,45,0.0,0.0,80,0.00,,,0.00,meteohub,2013-02-08 16:12:00,
2013-02-08 06:17:00,61.3,55.4,29.37,NE,45,0.0,0.0,81,0.00,,,0.00,meteohub,2013-02-08 16:17:00,
2013-02-08 06:22:00,61.5,55.6,29.38,NE,45,0.0,0.0,81,0.00,,,0.00,meteohub,2013-02-08 16:22:00,
2013-02-08 06:27:00,61.5,55.2,29.38,East,90,0.0,0.0,80,0.00,,,0.00,meteohub,2013-02-08 16:27:00,
2013-02-08 06:32:00,61.5,55.6,29.38,East,90,0.0,0.0,81,0.00,,,0.00,meteohub,2013-02-08 16:32:00,
2013-02-08 06:37:00,61.7,55.8,29.39,East,90,0.0,0.0,81,0.00,,,0.00,meteohub,2013-02-08 16:37:00,
2013-02-08 06:42:00,61.5,55.6,29.39,NE,45,0.0,0.0,81,0.00,,,0.00,meteohub,2013-02-08 16:42:00,
2013-02-08 06:47:00,61.7,55.4,29.39,NE,45,0.0,0.0,80,0.00,,,0.00,meteohub,2013-02-08 16:47:00,
2013-02-08 06:52:00,61.5,55.2,29.39,NE,45,0.0,0.0,80,0.00,,,0.00,meteohub,2013-02-08 16:52:00,
2013-02-08 06:57:00,61.2,55.2,29.40,NE,45,0.0,0.0,81,0.00,,,0.00,meteohub,2013-02-08 16:57:00,
2013-02-08 07:02:00,61.0,55.4,29.40,NE,45,0.0,0.0,82,0.00,,,0.00,meteohub,2013-02-08 17:02:00,
2013-02-08 07:07:00,61.2,55.9,29.40,NE,45,0.0,0.0,83,0.00,,,0.00,meteohub,2013-02-08 17:07:00,
2013-02-08 07:12:00,61.3,56.1,29.40,NE,45,0.0,0.0,83,0.00,,,0.00,meteohub,2013-02-08 17:12:00,
2013-02-08 07:17:00,61.9,56.7,29.40,East,90,0.0,0.0,83,0.00,,,0.00,meteohub,2013-02-08 17:17:00,
2013-02-08 07:22:00,62.2,57.0,29.40,East,90,0.0,0.0,83,0.00,,,0.00,meteohub,2013-02-08 17:22:00,
2013-02-08 07:27:00,62.6,57.4,29.41,NE,45,0.0,0.0,83,0.00,,,0.00,meteohub,2013-02-08 17:27:00,
2013-02-08 07:32:00,63.1,57.6,29.41,NE,45,0.0,0.0,82,0.00,,,0.00,meteohub,2013-02-08 17:32:00,
2013-02-08 07:37:00,63.5,57.6,29.40,East,90,0.0,0.0,81,0.00,,,0.00,meteohub,2013-02-08 17:37:00,
2013-02-08 07:42:00,63.9,57.6,29.40,NE,45,0.0,0.0,80,0.00,,,0.00,meteohub,2013-02-08 17:42:00,
2013-02-08 07:47:00,64.2,57.9,29.41,NE,45,0.0,0.0,80,0.00,,,0.00,meteohub,2013-02-08 17:47:00,
2013-02-08 07:52:00,64.6,58.3,29.42,NE,45,0.0,0.0,80,0.00,,,0.00,meteohub,2013-02-08 17:52:00,
2013-02-08 07:57:00,64.9,58.3,29.41,NE,45,0.0,0.0,79,0.00,,,0.00,meteohub,2013-02-08 17:57:00,
2013-02-08 08:02:00,65.7,59.0,29.41,NE,45,0.0,0.0,79,0.00,,,0.00,meteohub,2013-02-08 18:02:00,
2013-02-08 08:07:00,66.2,59.5,29.42,NE,45,0.0,0.0,79,0.00,,,0.00,meteohub,2013-02-08 18:07:00,
2013-02-08 08:12:00,66.9,59.9,29.42,NE,45,0.0,0.0,78,0.00,,,0.00,meteohub,2013-02-08 18:12:00,
2013-02-08 08:17:00,68.0,60.4,29.42,NE,45,0.0,0.0,77,0.00,,,0.00,meteohub,2013-02-08 18:17:00,
2013-02-08 08:22:00,69.1,61.5,29.42,East,90,0.0,0.0,77,0.00,,,0.00,meteohub,2013-02-08 18:22:00,
2013-02-08 08:27:00,70.3,62.4,29.42,East,90,0.0,0.0,76,0.00,,,0.00,meteohub,2013-02-08 18:27:00,
2013-02-08 08:32:00,70.9,62.6,29.42,NE,45,0.0,0.0,75,0.00,,,0.00,meteohub,2013-02-08 18:32:00,
2013-02-08 08:37:00,71.1,62.8,29.42,East,90,0.0,0.0,75,0.00,,,0.00,meteohub,2013-02-08 18:37:00,
2013-02-08 08:42:00,71.8,63.9,29.42,East,90,0.0,0.0,76,0.00,,,0.00,meteohub,2013-02-08 18:42:00,
2013-02-08 08:47:00,74.8,66.4,29.42,East,90,0.0,0.0,75,0.00,,,0.00,meteohub,2013-02-08 18:47:00,
2013-02-08 08:52:00,75.9,66.6,29.42,East,90,0.0,0.0,73,0.00,,,0.00,meteohub,2013-02-08 18:52:00,
2013-02-08 08:57:00,75.7,66.0,29.42,North,0,0.0,0.0,72,0.00,,,0.00,meteohub,2013-02-08 18:57:00,
2013-02-08 09:02:00,75.7,66.0,29.42,East,90,0.0,0.0,72,0.00,,,0.00,meteohub,2013-02-08 19:02:00,
2013-02-08 09:07:00,76.8,65.8,29.42,North,0,0.0,0.0,69,0.00,,,0.00,meteohub,2013-02-08 19:07:00,
2013-02-08 09:12:00,77.4,66.0,29.42,West,270,0.0,0.0,68,0.00,,,0.00,meteohub,2013-02-08 19:12:00,
2013-02-08 09:17:00,79.2,67.3,29.42,South,180,0.0,0.0,67,0.00,,,0.00,meteohub,2013-02-08 19:17:00,
2013-02-08 09:23:00,79.7,66.9,29.42,NW,315,0.0,0.0,65,0.00,,,0.00,meteohub,2013-02-08 19:23:00,
2013-02-08 09:28:00,78.8,66.0,29.42,West,270,0.0,0.0,65,0.00,,,0.00,meteohub,2013-02-08 19:28:00,
2013-02-08 09:33:00,79.3,66.9,29.42,NE,45,0.0,0.0,66,0.00,,,0.00,meteohub,2013-02-08 19:33:00,
2013-02-08 09:38:00,80.1,67.6,29.41,NW,315,0.0,0.0,66,0.00,,,0.00,meteohub,2013-02-08 19:38:00,
2013-02-08 09:43:00,78.4,67.8,29.42,NW,315,0.0,0.0,70,0.00,,,0.00,meteohub,2013-02-08 19:43:00,
2013-02-08 09:48:00,78.4,68.7,29.42,West,270,0.0,0.0,72,0.00,,,0.00,meteohub,2013-02-08 19:48:00,
2013-02-08 09:53:00,78.1,68.4,29.42,West,270,0.0,0.0,72,0.00,,,0.00,meteohub,2013-02-08 19:53:00,
2013-02-08 09:58:00,77.7,67.6,29.42,NW,315,0.0,0.0,71,0.00,,,0.00,meteohub,2013-02-08 19:58:00,
2013-02-08 10:03:00,78.3,68.0,29.42,West,270,0.0,0.0,71,0.00,,,0.00,meteohub,2013-02-08 20:03:00,
2013-02-08 10:08:00,78.1,67.5,29.41,North,0,0.0,0.0,70,0.00,,,0.00,meteohub,2013-02-08 20:08:00,
2013-02-08 10:13:00,79.0,67.5,29.41,West,270,0.0,0.0,68,0.00,,,0.00,meteohub,2013-02-08 20:13:00,
2013-02-08 10:18:00,78.1,67.5,29.41,West,270,0.0,0.0,70,0.00,,,0.00,meteohub,2013-02-08 20:18:00,
2013-02-08 10:23:00,77.4,67.3,29.41,SE,135,0.0,0.0,71,0.00,,,0.00,meteohub,2013-02-08 20:23:00,
2013-02-08 10:28:00,76.1,66.4,29.40,West,270,0.0,0.0,72,0.00,,,0.00,meteohub,2013-02-08 20:28:00,
2013-02-08 10:33:00,75.4,66.9,29.41,West,270,0.0,0.0,75,0.00,,,0.00,meteohub,2013-02-08 20:33:00,
2013-02-08 10:38:00,75.2,66.7,29.41,SE,135,0.0,0.0,75,0.00,,,0.00,meteohub,2013-02-08 20:38:00,
2013-02-08 10:43:00,75.0,67.3,29.40,West,270,0.0,0.0,77,0.00,,,0.00,meteohub,2013-02-08 20:43:00,
2013-02-08 10:48:00,74.8,67.5,29.40,West,270,0.0,0.0,78,0.00,,,0.00,meteohub,2013-02-08 20:48:00,
2013-02-08 10:53:00,74.7,67.3,29.40,NW,315,0.0,0.0,78,0.00,,,0.00,meteohub,2013-02-08 20:53:00,
2013-02-08 10:58:00,74.7,67.6,29.40,West,270,0.0,0.0,79,0.00,,,0.00,meteohub,2013-02-08 20:58:00,
2013-02-08 11:03:00,74.1,66.7,29.39,NW,315,0.0,0.0,78,0.00,,,0.00,meteohub,2013-02-08 21:03:00,
2013-02-08 11:08:00,74.1,67.1,29.39,NW,315,0.0,0.0,79,0.00,,,0.00,meteohub,2013-02-08 21:08:00,
2013-02-08 11:13:00,73.6,67.5,29.39,West,270,0.0,0.0,81,0.00,,,0.00,meteohub,2013-02-08 21:13:00,
2013-02-08 11:18:00,73.4,67.6,29.39,NW,315,0.0,0.0,82,0.00,,,0.00,meteohub,2013-02-08 21:18:00,
2013-02-08 11:23:00,73.4,68.2,29.39,West,270,0.0,0.0,84,0.00,,,0.00,meteohub,2013-02-08 21:23:00,
2013-02-08 11:28:00,73.8,68.5,29.39,West,270,0.0,0.0,84,0.00,,,0.00,meteohub,2013-02-08 21:28:00,
2013-02-08 11:33:00,74.3,68.4,29.39,West,270,0.0,0.0,82,0.00,,,0.00,meteohub,2013-02-08 21:33:00,
2013-02-08 11:38:00,74.1,68.2,29.39,NW,315,0.0,0.0,82,0.00,,,0.00,meteohub,2013-02-08 21:38:00,
2013-02-08 11:43:00,74.3,68.0,29.39,West,270,0.0,0.0,81,0.00,,,0.00,meteohub,2013-02-08 21:43:00,
2013-02-08 11:48:00,74.5,67.8,29.39,NW,315,0.0,0.0,80,0.00,,,0.00,meteohub,2013-02-08 21:48:00,
2013-02-08 11:53:00,76.5,69.8,29.39,East,90,0.0,0.0,80,0.00,,,0.00,meteohub,2013-02-08 21:53:00,
2013-02-08 11:58:00,77.7,69.1,29.38,NW,315,0.0,0.0,75,0.00,,,0.00,meteohub,2013-02-08 21:58:00,
2013-02-08 12:03:00,78.1,68.7,29.38,West,270,0.0,0.0,73,0.00,,,0.00,meteohub,2013-02-08 22:03:00,
2013-02-08 12:08:00,79.3,70.0,29.38,NW,315,0.0,0.0,73,0.00,,,0.00,meteohub,2013-02-08 22:08:00,
2013-02-08 12:13:00,79.5,69.3,29.37,South,180,0.0,0.0,71,0.00,,,0.00,meteohub,2013-02-08 22:13:00,
2013-02-08 12:18:00,78.4,68.2,29.37,West,270,0.0,0.0,71,0.00,,,0.00,meteohub,2013-02-08 22:18:00,
2013-02-08 12:24:00,78.8,69.4,29.37,West,270,0.0,0.0,73,0.00,,,0.00,meteohub,2013-02-08 22:24:00,
2013-02-08 12:29:00,79.3,69.1,29.37,West,270,0.0,0.0,71,0.00,,,0.00,meteohub,2013-02-08 22:29:00,
2013-02-08 12:34:00,79.9,69.6,29.36,West,270,0.0,0.0,71,0.00,,,0.00,meteohub,2013-02-08 22:34:00,
2013-02-08 12:39:00,80.6,70.0,29.36,South,180,0.0,0.0,70,0.00,,,0.00,meteohub,2013-02-08 22:39:00,
2013-02-08 12:44:00,80.4,69.8,29.36,WNW,293,0.0,0.0,70,0.00,,,0.00,meteohub,2013-02-08 22:44:00,
2013-02-08 12:49:00,79.0,68.7,29.35,West,270,0.0,0.0,71,0.00,,,0.00,meteohub,2013-02-08 22:49:00,
2013-02-08 12:54:00,79.9,70.0,29.35,East,90,0.0,0.0,72,0.00,,,0.00,meteohub,2013-02-08 22:54:00,
2013-02-08 12:59:00,81.0,69.4,29.34,NW,315,0.0,0.0,68,0.00,,,0.00,meteohub,2013-02-08 22:59:00,
2013-02-08 13:04:00,82.6,70.5,29.34,South,180,0.0,0.0,67,0.00,,,0.00,meteohub,2013-02-08 23:04:00,
2013-02-08 13:09:00,83.3,70.7,29.34,SE,135,0.0,0.0,66,0.00,,,0.00,meteohub,2013-02-08 23:09:00,
2013-02-08 13:14:00,83.1,70.2,29.34,NW,315,0.0,0.0,65,0.00,,,0.00,meteohub,2013-02-08 23:14:00,
2013-02-08 13:19:00,82.9,70.0,29.33,South,180,0.0,0.0,65,0.00,,,0.00,meteohub,2013-02-08 23:19:00,
2013-02-08 13:24:00,81.7,69.6,29.33,SE,135,0.0,0.0,67,0.00,,,0.00,meteohub,2013-02-08 23:24:00,
2013-02-08 13:29:00,80.6,68.2,29.33,West,270,0.0,0.0,66,0.00,,,0.00,meteohub,2013-02-08 23:29:00,
2013-02-08 13:34:00,81.1,69.6,29.32,South,180,0.0,0.0,68,0.00,,,0.00,meteohub,2013-02-08 23:34:00,
2013-02-08 13:39:00,80.8,69.3,29.32,NW,315,0.0,0.0,68,0.00,,,0.00,meteohub,2013-02-08 23:39:00,
2013-02-08 13:44:00,79.5,70.2,29.31,West,270,0.0,0.0,73,0.00,,,0.00,meteohub,2013-02-08 23:44:00,
2013-02-08 13:49:00,78.4,69.1,29.31,NW,315,0.0,0.0,73,0.00,,,0.00,meteohub,2013-02-08 23:49:00,
2013-02-08 13:54:00,77.7,68.7,29.31,West,270,0.0,0.0,74,0.00,,,0.00,meteohub,2013-02-08 23:54:00,
2013-02-08 13:59:00,79.7,70.7,29.31,South,180,0.0,0.0,74,0.00,,,0.00,meteohub,2013-02-08 23:59:00,
2013-02-08 14:04:00,81.0,71.1,29.30,South,180,0.0,0.0,72,0.00,,,0.00,meteohub,2013-02-09 00:04:00,
2013-02-08 14:09:00,81.5,71.2,29.30,West,270,0.0,0.0,71,0.00,,,0.00,meteohub,2013-02-09 00:09:00,
2013-02-08 14:14:00,80.2,70.0,29.30,West,270,0.0,0.0,71,0.00,,,0.00,meteohub,2013-02-09 00:14:00,
2013-02-08 14:19:00,78.3,69.3,29.30,SW,225,0.0,0.0,74,0.00,,,0.00,meteohub,2013-02-09 00:19:00,
2013-02-08 14:24:00,77.2,69.4,29.30,West,270,0.0,0.0,77,0.00,,,0.00,meteohub,2013-02-09 00:24:00,
2013-02-08 14:29:00,76.3,68.9,29.30,West,270,0.0,0.0,78,0.00,,,0.00,meteohub,2013-02-09 00:29:00,
2013-02-08 14:34:00,76.3,69.3,29.30,West,270,0.0,0.0,79,0.00,,,0.00,meteohub,2013-02-09 00:34:00,
2013-02-08 14:39:00,76.3,69.3,29.30,West,270,0.0,0.0,79,0.00,,,0.00,meteohub,2013-02-09 00:39:00,
2013-02-08 14:44:00,77.7,70.3,29.29,West,270,0.0,0.0,78,0.00,,,0.00,meteohub,2013-02-09 00:44:00,
2013-02-08 14:49:00,77.5,69.4,29.30,NW,315,0.0,0.0,76,0.00,,,0.00,meteohub,2013-02-09 00:49:00,
2013-02-08 14:54:00,76.5,69.1,29.30,West,270,0.0,0.0,78,0.00,,,0.00,meteohub,2013-02-09 00:54:00,
2013-02-08 14:59:00,75.7,69.1,29.30,NW,315,0.0,0.0,80,0.00,,,0.00,meteohub,2013-02-09 00:59:00,
2013-02-08 15:04:00,75.2,68.9,29.30,NW,315,0.0,0.0,81,0.00,,,0.00,meteohub,2013-02-09 01:04:00,
2013-02-08 15:09:00,75.2,68.5,29.29,West,270,0.0,0.0,80,0.00,,,0.00,meteohub,2013-02-09 01:09:00,
2013-02-08 15:14:00,75.0,69.1,29.30,NW,315,0.0,0.0,82,0.00,,,0.00,meteohub,2013-02-09 01:14:00,
2013-02-08 15:19:00,74.3,68.4,29.29,NW,315,3.0,0.0,82,0.00,,,0.00,meteohub,2013-02-09 01:19:00,
2013-02-08 15:24:00,73.9,68.7,29.29,West,270,6.0,8.0,84,0.00,,,0.00,meteohub,2013-02-09 01:24:00,
2013-02-08 15:29:00,73.6,68.7,29.30,West,270,0.0,8.0,85,0.00,,,0.00,meteohub,2013-02-09 01:29:00,
2013-02-08 15:34:00,73.6,68.7,29.30,West,270,0.0,8.0,85,0.00,,,0.00,meteohub,2013-02-09 01:34:00,
2013-02-08 15:39:00,73.9,69.1,29.29,NW,315,1.0,6.0,85,0.00,,,0.00,meteohub,2013-02-09 01:39:00,
2013-02-08 15:44:00,73.9,69.4,29.29,SE,135,1.0,4.0,86,0.00,,,0.00,meteohub,2013-02-09 01:44:00,
2013-02-08 15:49:00,73.2,68.4,29.29,West,270,1.0,1.0,85,0.00,,,0.00,meteohub,2013-02-09 01:49:00,
2013-02-08 15:55:00,73.2,68.4,29.29,West,270,1.0,2.0,85,0.00,,,0.00,meteohub,2013-02-09 01:55:00,
2013-02-08 16:00:00,72.9,68.4,29.30,West,270,0.0,2.0,86,0.00,,,0.00,meteohub,2013-02-09 02:00:00,
2013-02-08 16:05:00,72.9,68.7,29.29,West,270,0.0,2.0,87,0.00,,,0.00,meteohub,2013-02-09 02:05:00,
2013-02-08 16:10:00,72.3,68.5,29.29,West,270,0.0,1.0,88,0.00,,,0.00,meteohub,2013-02-09 02:10:00,
2013-02-08 16:15:00,72.0,68.2,29.29,West,270,0.0,1.0,88,0.00,,,0.00,meteohub,2013-02-09 02:15:00,
2013-02-08 16:20:00,71.6,68.2,29.29,North,0,0.0,0.0,89,0.00,,,0.00,meteohub,2013-02-09 02:20:00,
2013-02-08 16:25:00,71.2,68.5,29.29,NW,315,1.0,0.0,91,0.00,,,0.00,meteohub,2013-02-09 02:25:00,
2013-02-08 16:30:00,70.9,69.4,29.30,South,180,0.0,1.0,95,0.00,,,0.00,meteohub,2013-02-09 02:30:00,
2013-02-08 16:35:00,70.5,69.3,29.30,NW,315,0.0,1.0,96,0.00,,,0.00,meteohub,2013-02-09 02:35:00,
2013-02-08 16:40:00,70.2,69.8,29.30,West,270,1.0,1.0,99,0.00,,,0.01,meteohub,2013-02-09 02:40:00,
2013-02-08 16:45:00,69.8,69.4,29.30,West,270,0.0,1.0,99,0.01,,,0.02,meteohub,2013-02-09 02:45:00,
2013-02-08 16:50:00,69.6,69.3,29.30,North,0,0.0,2.0,99,0.02,,,0.02,meteohub,2013-02-09 02:50:00,
2013-02-08 16:55:00,69.4,69.1,29.30,West,270,0.0,2.0,99,0.02,,,0.02,meteohub,2013-02-09 02:55:00,
2013-02-08 17:00:00,69.4,69.1,29.31,South,180,0.0,2.0,99,0.02,,,0.02,meteohub,2013-02-09 03:00:00,
2013-02-08 17:05:00,69.4,69.1,29.31,NW,315,0.0,0.0,99,0.02,,,0.02,meteohub,2013-02-09 03:05:00,
2013-02-08 17:10:00,69.3,68.9,29.31,West,270,0.0,0.0,99,0.04,,,0.04,meteohub,2013-02-09 03:10:00,
2013-02-08 17:15:00,69.3,68.9,29.31,South,180,0.0,0.0,99,0.04,,,0.04,meteohub,2013-02-09 03:15:00,
2013-02-08 17:20:00,69.1,68.7,29.31,North,0,0.0,0.0,99,0.05,,,0.05,meteohub,2013-02-09 03:20:00,
2013-02-08 17:25:00,68.9,68.5,29.32,NW,315,0.0,0.0,99,0.13,,,0.13,meteohub,2013-02-09 03:25:00,
2013-02-08 17:30:00,68.7,68.4,29.31,East,90,0.0,0.0,99,0.17,,,0.17,meteohub,2013-02-09 03:30:00,
2013-02-08 17:35:00,68.5,68.2,29.31,North,0,0.0,0.0,99,0.19,,,0.20,meteohub,2013-02-09 03:35:00,
2013-02-08 17:40:00,68.5,68.2,29.31,South,180,0.0,0.0,99,0.19,,,0.20,meteohub,2013-02-09 03:40:00,
2013-02-08 17:45:00,68.4,68.0,29.32,NW,315,0.0,0.0,99,0.19,,,0.21,meteohub,2013-02-09 03:45:00,
2013-02-08 17:50:00,68.2,67.8,29.32,North,0,0.0,0.0,99,0.24,,,0.26,meteohub,2013-02-09 03:50:00,
2013-02-08 17:55:00,68.0,67.6,29.32,East,90,0.0,0.0,99,0.35,,,0.38,meteohub,2013-02-09 03:55:00,
2013-02-08 18:00:00,67.8,67.5,29.33,NW,315,0.0,0.0,99,0.40,,,0.43,meteohub,2013-02-09 04:00:00,
2013-02-08 18:05:00,68.0,67.6,29.33,North,0,0.0,0.0,99,0.44,,,0.47,meteohub,2013-02-09 04:05:00,
2013-02-08 18:10:00,67.8,67.5,29.33,NE,45,0.0,0.0,99,0.45,,,0.48,meteohub,2013-02-09 04:10:00,
2013-02-08 18:15:00,67.8,67.5,29.33,East,90,0.0,0.0,99,0.45,,,0.50,meteohub,2013-02-09 04:15:00,
2013-02-08 18:20:00,67.8,67.5,29.34,North,0,0.0,0.0,99,0.41,,,0.50,meteohub,2013-02-09 04:20:00,
2013-02-08 18:25:00,67.6,67.3,29.34,West,270,0.0,0.0,99,0.35,,,0.50,meteohub,2013-02-09 04:25:00,
2013-02-08 18:30:00,67.6,67.3,29.34,North,0,0.0,0.0,99,0.33,,,0.51,meteohub,2013-02-09 04:30:00,
2013-02-08 18:35:00,67.6,67.3,29.34,North,0,0.0,0.0,99,0.31,,,0.51,meteohub,2013-02-09 04:35:00,
2013-02-08 18:40:00,67.5,67.1,29.34,North,0,0.0,0.0,99,0.31,,,0.51,meteohub,2013-02-09 04:40:00,
2013-02-08 18:45:00,67.5,67.1,29.34,North,0,0.0,0.0,99,0.27,,,0.51,meteohub,2013-02-09 04:45:00,
2013-02-08 18:50:00,67.3,66.9,29.34,North,0,0.0,0.0,99,0.21,,,0.51,meteohub,2013-02-09 04:50:00,
2013-02-08 18:55:00,67.1,66.7,29.34,North,0,0.0,0.0,99,0.13,,,0.51,meteohub,2013-02-09 04:55:00,
2013-02-08 19:00:00,67.1,66.7,29.34,North,0,0.0,0.0,99,0.13,,,0.51,meteohub,2013-02-09 05:00:00,
2013-02-08 19:05:00,67.1,66.7,29.34,North,0,0.0,0.0,99,0.04,,,0.51,meteohub,2013-02-09 05:05:00,
2013-02-08 19:10:00,66.9,66.6,29.35,East,90,0.0,0.0,99,0.01,,,0.51,meteohub,2013-02-09 05:10:00,
2013-02-08 19:15:00,66.9,66.6,29.35,East,90,0.0,0.0,99,0.01,,,0.51,meteohub,2013-02-09 05:15:00,
2013-02-08 19:20:00,66.9,66.6,29.35,East,90,0.0,0.0,99,0.01,,,0.51,meteohub,2013-02-09 05:20:00,
2013-02-08 19:25:00,66.9,66.6,29.35,East,90,0.0,0.0,99,0.01,,,0.51,meteohub,2013-02-09 05:25:00,
2013-02-08 19:30:00,66.7,66.4,29.36,East,90,0.0,0.0,99,0.00,,,0.51,meteohub,2013-02-09 05:30:00,
2013-02-08 19:35:00,66.6,66.2,29.36,East,90,0.0,0.0,99,0.00,,,0.51,meteohub,2013-02-09 05:35:00,
2013-02-08 19:40:00,66.6,66.2,29.35,East,90,0.0,0.0,99,0.00,,,0.51,meteohub,2013-02-09 05:40:00,
2013-02-08 19:46:00,66.4,66.0,29.36,East,90,0.0,0.0,99,0.00,,,0.51,meteohub,2013-02-09 05:46:00,
2013-02-08 19:51:00,66.4,66.0,29.36,East,90,0.0,0.0,99,0.00,,,0.51,meteohub,2013-02-09 05:51:00,
2013-02-08 19:56:00,66.4,66.0,29.36,East,90,0.0,0.0,99,0.00,,,0.51,meteohub,2013-02-09 05:56:00,
2013-02-08 20:01:00,66.2,65.8,29.36,East,90,0.0,0.0,99,0.00,,,0.51,meteohub,2013-02-09 06:01:00,
2013-02-08 20:06:00,66.2,65.8,29.36,East,90,0.0,0.0,99,0.00,,,0.51,meteohub,2013-02-09 06:06:00,
2013-02-08 20:11:00,66.2,65.8,29.36,East,90,0.0,0.0,99,0.00,,,0.51,meteohub,2013-02-09 06:11:00,
2013-02-08 20:16:00,66.2,65.8,29.36,East,90,0.0,0.0,99,0.00,,,0.51,meteohub,2013-02-09 06:16:00,
2013-02-08 20:21:00,66.2,65.8,29.36,NE,45,0.0,0.0,99,0.00,,,0.51,meteohub,2013-02-09 06:21:00,
2013-02-08 20:26:00,66.2,65.8,29.36,NE,45,0.0,0.0,99,0.00,,,0.51,meteohub,2013-02-09 06:26:00,
2013-02-08 20:31:00,66.2,65.8,29.36,NE,45,0.0,0.0,99,0.00,,,0.51,meteohub,2013-02-09 06:31:00,
2013-02-08 20:36:00,66.2,65.8,29.37,NE,45,0.0,0.0,99,0.00,,,0.51,meteohub,2013-02-09 06:36:00,
2013-02-08 20:41:00,66.4,66.0,29.37,NE,45,0.0,0.0,99,0.00,,,0.51,meteohub,2013-02-09 06:41:00,
2013-02-08 20:46:00,66.4,66.0,29.37,NE,45,0.0,0.0,99,0.00,,,0.51,meteohub,2013-02-09 06:46:00,
2013-02-08 20:51:00,66.4,66.0,29.37,NE,45,0.0,0.0,99,0.00,,,0.51,meteohub,2013-02-09 06:51:00,
2013-02-08 20:56:00,66.4,66.0,29.38,NE,45,0.0,0.0,99,0.00,,,0.51,meteohub,2013-02-09 06:56:00,
2013-02-08 21:01:00,66.2,65.8,29.37,NE,45,0.0,0.0,99,0.00,,,0.51,meteohub,2013-02-09 07:01:00,
2013-02-08 21:06:00,66.2,65.8,29.38,NE,45,0.0,0.0,99,0.00,,,0.51,meteohub,2013-02-09 07:06:00,
2013-02-08 21:11:00,66.2,65.8,29.37,NE,45,0.0,0.0,99,0.00,,,0.51,meteohub,2013-02-09 07:11:00,
2013-02-08 21:16:00,66.2,65.8,29.38,NE,45,0.0,0.0,99,0.00,,,0.51,meteohub,2013-02-09 07:16:00,
2013-02-08 21:21:00,66.0,65.7,29.37,NE,45,0.0,0.0,99,0.00,,,0.51,meteohub,2013-02-09 07:21:00,
2013-02-08 21:26:00,66.0,65.7,29.38,NE,45,0.0,0.0,99,0.00,,,0.51,meteohub,2013-02-09 07:26:00,
2013-02-08 21:31:00,65.8,65.5,29.38,NE,45,0.0,0.0,99,0.00,,,0.51,meteohub,2013-02-09 07:31:00,
2013-02-08 21:36:00,65.8,65.5,29.39,NE,45,0.0,0.0,99,0.00,,,0.51,meteohub,2013-02-09 07:36:00,
2013-02-08 21:41:00,65.8,65.5,29.38,NE,45,0.0,0.0,99,0.00,,,0.51,meteohub,2013-02-09 07:41:00,
2013-02-08 21:46:00,65.8,65.5,29.38,NE,45,0.0,0.0,99,0.00,,,0.51,meteohub,2013-02-09 07:46:00,
2013-02-08 21:51:00,65.8,65.5,29.38,NE,45,0.0,0.0,99,0.00,,,0.51,meteohub,2013-02-09 07:51:00,
2013-02-08 21:56:00,65.8,65.5,29.38,NE,45,0.0,0.0,99,0.00,,,0.51,meteohub,2013-02-09 07:56:00,
2013-02-08 22:01:00,65.8,65.5,29.38,NE,45,0.0,0.0,99,0.00,,,0.51,meteohub,2013-02-09 08:01:00,
2013-02-08 22:06:00,65.8,65.5,29.39,NE,45,0.0,0.0,99,0.00,,,0.51,meteohub,2013-02-09 08:06:00,
2013-02-08 22:11:00,65.8,65.5,29.39,NE,45,0.0,0.0,99,0.00,,,0.51,meteohub,2013-02-09 08:11:00,
2013-02-08 22:16:00,65.8,65.5,29.38,NE,45,0.0,0.0,99,0.00,,,0.51,meteohub,2013-02-09 08:16:00,
2013-02-08 22:21:00,65.8,65.5,29.38,NE,45,0.0,0.0,99,0.00,,,0.51,meteohub,2013-02-09 08:21:00,
2013-02-08 22:26:00,65.8,65.5,29.39,NE,45,0.0,0.0,99,0.00,,,0.51,meteohub,2013-02-09 08:26:00,
2013-02-08 22:31:00,65.7,65.3,29.38,NE,45,0.0,0.0,99,0.00,,,0.51,meteohub,2013-02-09 08:31:00,
2013-02-08 22:36:00,65.7,65.3,29.38,NE,45,0.0,0.0,99,0.00,,,0.51,meteohub,2013-02-09 08:36:00,
2013-02-08 22:41:00,65.5,65.1,29.38,NE,45,0.0,0.0,99,0.00,,,0.51,meteohub,2013-02-09 08:41:00,
2013-02-08 22:46:00,65.5,65.1,29.38,NE,45,0.0,0.0,99,0.00,,,0.51,meteohub,2013-02-09 08:46:00,
2013-02-08 22:51:00,65.3,64.9,29.39,NE,45,0.0,0.0,99,0.00,,,0.51,meteohub,2013-02-09 08:51:00,
2013-02-08 22:56:00,65.1,64.8,29.39,NE,45,0.0,0.0,99,0.00,,,0.51,meteohub,2013-02-09 08:56:00,
2013-02-08 23:01:00,65.1,64.8,29.39,NE,45,0.0,0.0,99,0.00,,,0.51,meteohub,2013-02-09 09:01:00,
2013-02-08 23:06:00,64.9,64.6,29.39,NE,45,0.0,0.0,99,0.00,,,0.51,meteohub,2013-02-09 09:06:00,
2013-02-08 23:11:00,64.9,64.6,29.39,NE,45,0.0,0.0,99,0.00,,,0.51,meteohub,2013-02-09 09:11:00,
2013-02-08 23:16:00,64.8,64.4,29.38,NE,45,0.0,0.0,99,0.00,,,0.51,meteohub,2013-02-09 09:16:00,
2013-02-08 23:21:00,64.8,64.4,29.38,NE,45,0.0,0.0,99,0.00,,,0.51,meteohub,2013-02-09 09:21:00,
2013-02-08 23:26:00,64.6,64.2,29.38,NE,45,0.0,0.0,99,0.00,,,0.51,meteohub,2013-02-09 09:26:00,
2013-02-08 23:31:00,64.4,64.0,29.38,NE,45,0.0,0.0,99,0.00,,,0.51,meteohub,2013-02-09 09:31:00,
2013-02-08 23:36:00,64.4,64.0,29.38,NE,45,0.0,0.0,99,0.00,,,0.51,meteohub,2013-02-09 09:36:00,
2013-02-08 23:41:00,64.4,64.0,29.38,NE,45,0.0,0.0,99,0.00,,,0.51,meteohub,2013-02-09 09:41:00,
2013-02-08 23:47:00,64.2,63.9,29.38,NE,45,0.0,0.0,99,0.00,,,0.51,meteohub,2013-02-09 09:47:00,
2013-02-08 23:52:00,64.2,63.9,29.38,NE,45,0.0,0.0,99,0.00,,,0.51,meteohub,2013-02-09 09:52:00,
2013-02-08 23:57:00,64.0,63.7,29.38,NE,45,0.0,0.0,99,0.00,,,0.51,meteohub,2013-02-09 09:57:00,